Flag for Kazakhstan Weather past 2 weeks in Astana, Kazakhstan

Now
14 °F

Partly cloudy.


Feels Like: 5 °F
Forecast: 10 / 19 °F
Wind: 6 mph from Southwest

Location: Astana

Current Time: Oct 26, 2014 at 8:06:20 AM

Latest Report: Oct 26, 2014 at 7:30 AM


Visibility: N/A

Pressure: 29.95 "Hg

Humidity: 85%

Dew point: 10 °F

Location of AstanaLocation

Historic Weather in Astana — Graph

°F

Astana temperature yesterday

Maximum temperature yesterday: 27 °F (at 12:00 AM)
Minimum temperature yesterday: 12 °F (at 8:00 AM)
Average temperature yesterday: 19 °F

Past Weeks' High & Low Weather Summary

 TemperatureHumidityPressure
High68 °F (Oct 19, 3:30 PM)100% (Oct 13, 6:30 AM)30.24 "Hg (Oct 13, 6:30 AM)
Low12 °F (Oct 25, 8:00 AM)19% (Oct 17, 4:00 PM)29.30 "Hg (Oct 20, 6:30 PM)
Average41 °F74%29.90 "Hg
* Reported Oct 11 7:00 AM — Oct 26 7:00 AM, Astana, Weather by CustomWeather, © 2014

Note: Actual official high and low records may vary slightly from our data, if they occured in-between our weather recording intervals... More about our weather records

Advertising

Astana weather history for previous 24 hours

 ConditionsComfort  
Time TempWeatherWind HumidityBarometerVisibility
7:00 AM
Oct 26
14 °FClear.6 mph92%29.95 "Hg10 mi
6:30 AM14 °FClear.6 mph92%29.95 "Hg10 mi
6:00 AM14 °FClear.3 mph85%29.95 "Hg10 mi
5:30 AM14 °FPartly cloudy.6 mph85%29.95 "HgN/A
5:00 AM14 °FPartly cloudy.6 mph85%29.95 "HgN/A
4:30 AM14 °FPartly cloudy.3 mph85%29.95 "HgN/A
4:00 AM14 °FPartly cloudy.6 mph85%29.95 "HgN/A
3:30 AM14 °FPartly cloudy.6 mph85%29.98 "HgN/A
3:00 AM12 °FPartly cloudy.6 mph92%29.98 "HgN/A
2:30 AM12 °FPartly cloudy.6 mph92%29.98 "HgN/A
2:00 AM12 °FPartly cloudy.6 mph85%29.98 "HgN/A
1:30 AM12 °FPartly cloudy.6 mph85%29.98 "HgN/A
1:00 AM16 °FPartly cloudy.6 mph86%29.98 "HgN/A
12:30 AM16 °FPartly cloudy.6 mph86%29.98 "HgN/A
12:00 AM16 °FPartly cloudy.6 mph79%29.98 "HgN/A
11:30 PM
Oct 25
16 °FClear.6 mph86%29.98 "Hg10 mi
11:00 PM16 °FClear.6 mph86%30.01 "Hg10 mi
10:30 PM16 °FClear.6 mph79%30.01 "Hg10 mi
10:00 PM16 °FClear.8 mph79%30.01 "Hg10 mi
9:30 PM16 °FClear.8 mph79%30.01 "Hg10 mi
9:00 PM16 °FClear.8 mph79%29.98 "Hg10 mi
8:30 PM16 °FClear.8 mph79%29.98 "Hg10 mi
8:00 PM16 °FClear.8 mph79%29.98 "Hg10 mi
7:30 PM16 °FClear.6 mph79%29.98 "Hg10 mi
7:00 PM19 °FClear.8 mph73%29.98 "Hg10 mi
6:30 PM19 °FPartly cloudy.8 mph68%29.98 "HgN/A
6:00 PM19 °FBroken clouds.8 mph68%29.98 "HgN/A
5:30 PM21 °FSnow flurries. Broken clouds.13 mph63%29.98 "HgN/A
5:00 PM21 °FSnow flurries. Broken clouds.15 mph63%29.95 "HgN/A
4:30 PM21 °FSnow flurries. Broken clouds.15 mph63%29.95 "HgN/A
4:00 PM21 °FSnow flurries. Partly sunny.17 mph63%29.95 "HgN/A
3:30 PM21 °FSnow flurries. Partly sunny.15 mph68%29.95 "HgN/A
3:00 PM21 °FPartly sunny.20 mph63%29.92 "HgN/A
2:30 PM21 °FSnow flurries. Partly sunny.15 mph74%29.92 "HgN/A
2:00 PM21 °FBroken clouds.17 mph68%29.92 "HgN/A
1:30 PM19 °FBroken clouds.20 mph68%29.92 "HgN/A
1:00 PM19 °FSnow flurries. Broken clouds.17 mph73%29.92 "HgN/A
12:30 PM21 °FBroken clouds.17 mph63%29.92 "HgN/A
12:00 PM19 °FPartly sunny.20 mph63%29.92 "HgN/A
11:30 AM21 °FPartly sunny.17 mph68%29.89 "HgN/A
11:00 AM19 °FPartly sunny.17 mph73%29.89 "HgN/A
10:30 AM19 °FScattered clouds.15 mph73%29.89 "HgN/A
10:00 AM18 °FScattered clouds.15 mph73%29.89 "HgN/A
9:30 AM18 °FPartly sunny.15 mph73%29.89 "HgN/A
8:30 AM14 °FPassing clouds.8 mph85%29.86 "HgN/A
8:00 AM12 °FSunny.8 mph85%29.86 "Hg10 mi
Weather by CustomWeather, © 2014

See weather overviewHow to use our weather pages